JST416 YSSY-YBCG

Flight info

Callsign JST416
Flight time 1h 14m
Altitude 39000
Route KEVIN7/16L OLSEM Y193 BANDA Y43 GOMOL
Aircraft A320/M-SDE3FGHIRWY/LB1

Departure

Time 2026-04-24 06:47
Airport Sydney Kingsford Smith International Airport (YSSY)

Arrival

Time 2026-04-24 08:01
Airport Gold Coast Airport (YBCG)
Time Latitude Longitude Altitude Speed Heading
2026-04-24 06:12 -33.93411 151.17715 30 ft 0 kts 99°
2026-04-24 06:12 -33.93411 151.17714 30 ft 0 kts 99°
2026-04-24 06:33 -33.93411 151.17713 30 ft 1 kts 99°
2026-04-24 06:33 -33.93408 151.17694 30 ft 3 kts 100°
2026-04-24 06:33 -33.93405 151.17670 30 ft 3 kts 98°
2026-04-24 06:33 -33.93403 151.17646 30 ft 3 kts 88°
2026-04-24 06:34 -33.93405 151.17624 30 ft 3 kts 89°
2026-04-24 06:34 -33.93401 151.17604 30 ft 3 kts 135°
2026-04-24 06:34 -33.93386 151.17592 30 ft 3 kts 165°
2026-04-24 06:34 -33.93367 151.17587 30 ft 2 kts 170°
2026-04-24 06:35 -33.93356 151.17584 30 ft 3 kts 170°
2026-04-24 06:35 -33.93336 151.17580 30 ft 3 kts 170°
2026-04-24 06:35 -33.93316 151.17575 30 ft 3 kts 169°
2026-04-24 06:35 -33.93298 151.17571 30 ft 2 kts 169°
2026-04-24 06:36 -33.93294 151.17570 30 ft 0 kts 169°
2026-04-24 06:38 -33.93296 151.17571 30 ft 2 kts 169°
2026-04-24 06:38 -33.93348 151.17582 30 ft 11 kts 169°
2026-04-24 06:39 -33.93437 151.17590 30 ft 14 kts 192°
2026-04-24 06:39 -33.93544 151.17600 30 ft 19 kts 167°
2026-04-24 06:39 -33.93680 151.17659 30 ft 22 kts 149°
2026-04-24 06:39 -33.93819 151.17705 30 ft 20 kts 167°
2026-04-24 06:40 -33.93884 151.17777 30 ft 13 kts 162°
2026-04-24 06:40 -33.93959 151.17794 29 ft 10 kts 167°
2026-04-24 06:40 -33.94060 151.17821 29 ft 21 kts 168°
2026-04-24 06:40 -33.94204 151.17858 30 ft 22 kts 168°
2026-04-24 06:41 -33.94362 151.17898 30 ft 24 kts 168°
2026-04-24 06:41 -33.94493 151.17875 30 ft 17 kts 202°
2026-04-24 06:41 -33.94591 151.17900 30 ft 18 kts 170°
2026-04-24 06:41 -33.94727 151.17936 30 ft 22 kts 167°
2026-04-24 06:42 -33.94879 151.17974 30 ft 22 kts 168°
2026-04-24 06:42 -33.95027 151.18012 30 ft 20 kts 167°
2026-04-24 06:42 -33.95105 151.18080 30 ft 14 kts 92°
2026-04-24 06:42 -33.95082 151.18202 30 ft 16 kts 78°
2026-04-24 06:43 -33.95056 151.18350 30 ft 20 kts 78°
2026-04-24 06:43 -33.95026 151.18518 30 ft 19 kts 78°
2026-04-24 06:43 -33.95001 151.18652 30 ft 13 kts 77°
2026-04-24 06:43 -33.94989 151.18721 28 ft 0 kts 77°
2026-04-24 06:45 -33.94984 151.18749 27 ft 9 kts 78°
2026-04-24 06:45 -33.94986 151.18833 25 ft 9 kts 144°
2026-04-24 06:45 -33.95020 151.18843 27 ft 0 kts 169°
2026-04-24 06:46 -33.95047 151.18850 24 ft 16 kts 169°
2026-04-24 06:46 -33.95402 151.18942 24 ft 87 kts 168°
2026-04-24 06:46 -33.96183 151.19144 30 ft 140 kts 168°
2026-04-24 06:47 -33.97182 151.19399 547 ft 145 kts 166°
2026-04-24 06:47 -33.98055 151.19979 1162 ft 146 kts 128°
2026-04-24 06:47 -33.98649 151.20971 1795 ft 146 kts 123°
2026-04-24 06:47 -33.99281 151.22045 2132 ft 167 kts 124°
2026-04-24 06:48 -34.00003 151.23246 2478 ft 188 kts 125°
2026-04-24 06:48 -34.00849 151.24584 2818 ft 214 kts 132°
2026-04-24 06:48 -34.02059 151.25785 3310 ft 237 kts 140°
2026-04-24 06:48 -34.03389 151.27060 3933 ft 253 kts 140°
2026-04-24 06:49 -34.04790 151.28429 4867 ft 260 kts 139°
2026-04-24 06:49 -34.06205 151.29820 5777 ft 265 kts 139°
2026-04-24 06:49 -34.07648 151.31236 6717 ft 270 kts 139°
2026-04-24 06:49 -34.09115 151.32674 7588 ft 274 kts 139°
2026-04-24 06:50 -34.10564 151.34146 8457 ft 276 kts 132°
2026-04-24 06:50 -34.11578 151.36130 9328 ft 277 kts 107°
2026-04-24 06:50 -34.11744 151.38413 10186 ft 281 kts 82°
2026-04-24 06:50 -34.11016 151.40663 10699 ft 299 kts 55°
2026-04-24 06:51 -34.09628 151.42581 11378 ft 306 kts 49°
2026-04-24 06:51 -34.08174 151.44488 12150 ft 310 kts 49°
2026-04-24 06:51 -34.06542 151.46226 12892 ft 317 kts 36°
2026-04-24 06:51 -34.04570 151.47502 13389 ft 333 kts 23°
2026-04-24 06:52 -34.02264 151.48321 13599 ft 355 kts 17°
2026-04-24 06:52 -33.99845 151.49093 14161 ft 363 kts 17°
2026-04-24 06:52 -33.97389 151.49879 14780 ft 367 kts 17°
2026-04-24 06:52 -33.94909 151.50678 15407 ft 371 kts 17°
2026-04-24 06:53 -33.92407 151.51488 16031 ft 374 kts 17°
2026-04-24 06:53 -33.89884 151.52313 16632 ft 377 kts 17°
2026-04-24 06:53 -33.87345 151.53152 17236 ft 380 kts 17°
2026-04-24 06:53 -33.84814 151.53986 17843 ft 383 kts 17°
2026-04-24 06:54 -33.82230 151.54835 18464 ft 387 kts 17°
2026-04-24 06:54 -33.79627 151.55687 19037 ft 390 kts 17°
2026-04-24 06:54 -33.76991 151.56546 19577 ft 394 kts 17°
2026-04-24 06:54 -33.74336 151.57408 20103 ft 398 kts 18°
2026-04-24 06:55 -33.71648 151.58280 20622 ft 402 kts 18°
2026-04-24 06:55 -33.68936 151.59160 21139 ft 406 kts 18°
2026-04-24 06:55 -33.66210 151.60100 21632 ft 408 kts 22°
2026-04-24 06:55 -33.63623 151.61491 22103 ft 408 kts 32°
2026-04-24 06:56 -33.61219 151.63316 22570 ft 410 kts 36°
2026-04-24 06:56 -33.58822 151.65207 23046 ft 413 kts 36°
2026-04-24 06:56 -33.56432 151.67085 23510 ft 417 kts 36°
2026-04-24 06:56 -33.53991 151.68999 23995 ft 420 kts 36°
2026-04-24 06:57 -33.51536 151.70918 24394 ft 424 kts 35°
2026-04-24 06:57 -33.48902 151.72563 24796 ft 430 kts 25°
2026-04-24 06:57 -33.46037 151.73677 25200 ft 436 kts 18°
2026-04-24 06:57 -33.43101 151.74610 25607 ft 438 kts 18°
2026-04-24 06:58 -33.40154 151.75554 26012 ft 440 kts 18°
2026-04-24 06:58 -33.37192 151.76510 26411 ft 442 kts 18°
2026-04-24 06:58 -33.34222 151.77473 26813 ft 444 kts 18°
2026-04-24 06:58 -33.31232 151.78442 27221 ft 446 kts 18°
2026-04-24 06:59 -33.28228 151.79417 27637 ft 448 kts 18°
2026-04-24 06:59 -33.25217 151.80392 28040 ft 450 kts 18°
2026-04-24 06:59 -33.22179 151.81372 28445 ft 452 kts 18°
2026-04-24 06:59 -33.19139 151.82353 28838 ft 454 kts 18°
2026-04-24 07:00 -33.16074 151.83341 29217 ft 456 kts 18°
2026-04-24 07:00 -33.12995 151.84331 29588 ft 459 kts 18°
2026-04-24 07:00 -33.09909 151.85318 29981 ft 460 kts 18°
2026-04-24 07:00 -33.06807 151.86308 30394 ft 462 kts 18°
2026-04-24 07:01 -33.03712 151.87299 30876 ft 460 kts 18°
2026-04-24 07:01 -33.00661 151.88280 31304 ft 460 kts 18°
2026-04-24 07:01 -32.97571 151.89277 31706 ft 460 kts 18°
2026-04-24 07:01 -32.94470 151.90271 32093 ft 461 kts 18°
2026-04-24 07:02 -32.91365 151.91265 32494 ft 462 kts 18°
2026-04-24 07:02 -32.88256 151.92257 32909 ft 462 kts 18°
2026-04-24 07:02 -32.85155 151.93248 33342 ft 462 kts 18°
2026-04-24 07:02 -32.82046 151.94243 33788 ft 462 kts 18°
2026-04-24 07:03 -32.78943 151.95235 34241 ft 462 kts 18°
2026-04-24 07:03 -32.75839 151.96226 34636 ft 462 kts 18°
2026-04-24 07:03 -32.72730 151.97218 34988 ft 462 kts 18°
2026-04-24 07:03 -32.69618 151.98208 35327 ft 463 kts 18°
2026-04-24 07:04 -32.66496 151.99200 35646 ft 464 kts 18°
2026-04-24 07:04 -32.63378 152.00191 35969 ft 464 kts 18°
2026-04-24 07:04 -32.60256 152.01184 36289 ft 465 kts 18°
2026-04-24 07:04 -32.57126 152.02179 36593 ft 466 kts 18°
2026-04-24 07:05 -32.53988 152.03175 36899 ft 466 kts 18°
2026-04-24 07:05 -32.50855 152.04169 37197 ft 467 kts 18°
2026-04-24 07:05 -32.47715 152.05170 37497 ft 468 kts 18°
2026-04-24 07:05 -32.44568 152.06171 37797 ft 468 kts 17°
2026-04-24 07:06 -32.41463 152.07154 38080 ft 469 kts 17°
2026-04-24 07:06 -32.38300 152.08148 38352 ft 470 kts 17°
2026-04-24 07:06 -32.35139 152.09138 38633 ft 471 kts 17°
2026-04-24 07:06 -32.31969 152.10133 38911 ft 471 kts 17°
2026-04-24 07:07 -32.28800 152.11128 39152 ft 472 kts 17°
2026-04-24 07:07 -32.25626 152.12130 39358 ft 473 kts 17°
2026-04-24 07:07 -32.19258 152.14150 39461 ft 475 kts 17°
2026-04-24 07:08 -32.12866 152.16165 39468 ft 475 kts 17°
2026-04-24 07:08 -32.06474 152.18178 39464 ft 475 kts 16°
2026-04-24 07:09 -32.01326 152.19788 39461 ft 475 kts 16°
2026-04-24 07:09 -31.94928 152.21784 39464 ft 475 kts 16°
2026-04-24 07:10 -31.88531 152.23785 39464 ft 476 kts 16°
2026-04-24 07:10 -31.82132 152.25785 39471 ft 476 kts 16°
2026-04-24 07:11 -31.75722 152.27781 39473 ft 477 kts 15°
2026-04-24 07:11 -31.69298 152.29784 39467 ft 477 kts 16°
2026-04-24 07:12 -31.62912 152.31776 39474 ft 478 kts 15°
2026-04-24 07:12 -31.56485 152.33770 39476 ft 478 kts 15°
2026-04-24 07:13 -31.50038 152.35758 39464 ft 478 kts 15°
2026-04-24 07:13 -31.43605 152.37753 39467 ft 478 kts 15°
2026-04-24 07:14 -31.37160 152.39757 39474 ft 479 kts 15°
2026-04-24 07:14 -31.30704 152.41750 39474 ft 479 kts 15°
2026-04-24 07:15 -31.24304 152.43725 39476 ft 479 kts 15°
2026-04-24 07:15 -31.17863 152.45710 39458 ft 478 kts 15°
2026-04-24 07:16 -31.11425 152.47689 39467 ft 478 kts 15°
2026-04-24 07:16 -31.04976 152.49663 39463 ft 478 kts 14°
2026-04-24 07:17 -30.98538 152.51632 39462 ft 478 kts 14°
2026-04-24 07:17 -30.92099 152.53610 39469 ft 478 kts 14°
2026-04-24 07:18 -30.85713 152.55567 39480 ft 477 kts 14°
2026-04-24 07:18 -30.79324 152.57632 39471 ft 477 kts 20°
2026-04-24 07:19 -30.73157 152.60481 39467 ft 476 kts 21°
2026-04-24 07:19 -30.67001 152.63343 39468 ft 476 kts 21°
2026-04-24 07:20 -30.60837 152.66200 39462 ft 477 kts 21°
2026-04-24 07:20 -30.54665 152.69047 39438 ft 479 kts 21°
2026-04-24 07:21 -30.48499 152.71880 39438 ft 480 kts 21°
2026-04-24 07:21 -30.42283 152.74739 39440 ft 481 kts 21°
2026-04-24 07:22 -30.36049 152.77621 39440 ft 482 kts 21°
2026-04-24 07:22 -30.29808 152.80493 39442 ft 482 kts 21°
2026-04-24 07:23 -30.23563 152.83360 39444 ft 483 kts 21°
2026-04-24 07:23 -30.17323 152.86228 39448 ft 482 kts 21°
2026-04-24 07:24 -30.11121 152.89053 39447 ft 481 kts 21°
2026-04-24 07:24 -30.04887 152.91899 39439 ft 482 kts 21°
2026-04-24 07:25 -29.98651 152.94760 39432 ft 482 kts 21°
2026-04-24 07:25 -29.92413 152.97601 39433 ft 482 kts 21°
2026-04-24 07:26 -29.86177 153.00439 39430 ft 481 kts 21°
2026-04-24 07:26 -29.79950 153.03279 39426 ft 481 kts 21°
2026-04-24 07:27 -29.73725 153.06100 39217 ft 480 kts 21°
2026-04-24 07:27 -29.70621 153.07507 38967 ft 479 kts 21°
2026-04-24 07:27 -29.67531 153.08909 38535 ft 477 kts 21°
2026-04-24 07:28 -29.64442 153.10309 37962 ft 476 kts 21°
2026-04-24 07:28 -29.61355 153.11705 37377 ft 476 kts 21°
2026-04-24 07:28 -29.58276 153.13099 36700 ft 477 kts 21°
2026-04-24 07:28 -29.55174 153.14503 35908 ft 480 kts 20°
2026-04-24 07:29 -29.52053 153.15917 35175 ft 482 kts 20°
2026-04-24 07:29 -29.48957 153.17321 34622 ft 476 kts 20°
2026-04-24 07:29 -29.45926 153.18689 33419 ft 472 kts 20°
2026-04-24 07:29 -29.42868 153.20063 32022 ft 472 kts 21°
2026-04-24 07:30 -29.39807 153.21438 31102 ft 472 kts 22°
2026-04-24 07:30 -29.36767 153.22804 30417 ft 465 kts 23°
2026-04-24 07:30 -29.33769 153.24153 29205 ft 459 kts 24°
2026-04-24 07:30 -29.30853 153.25466 28712 ft 443 kts 24°
2026-04-24 07:31 -29.28019 153.26743 28052 ft 432 kts 24°
2026-04-24 07:31 -29.25247 153.27987 27424 ft 422 kts 24°
2026-04-24 07:31 -29.22532 153.29207 26807 ft 417 kts 24°
2026-04-24 07:31 -29.19836 153.30417 26200 ft 415 kts 24°
2026-04-24 07:32 -29.17150 153.31625 25586 ft 413 kts 24°
2026-04-24 07:32 -29.14478 153.32824 24981 ft 412 kts 24°
2026-04-24 07:32 -29.11810 153.34019 24374 ft 411 kts 24°
2026-04-24 07:32 -29.09150 153.35211 23743 ft 410 kts 24°
2026-04-24 07:33 -29.06531 153.36383 23134 ft 408 kts 24°
2026-04-24 07:33 -29.03902 153.37555 22559 ft 404 kts 24°
2026-04-24 07:33 -29.01287 153.38722 22003 ft 401 kts 24°
2026-04-24 07:33 -28.98688 153.39885 21471 ft 398 kts 25°
2026-04-24 07:34 -28.96112 153.41038 20935 ft 395 kts 25°
2026-04-24 07:34 -28.93563 153.42176 20416 ft 392 kts 25°
2026-04-24 07:34 -28.91033 153.43304 19905 ft 389 kts 25°
2026-04-24 07:34 -28.88518 153.44427 19392 ft 386 kts 25°
2026-04-24 07:35 -28.86054 153.45526 18885 ft 384 kts 25°
2026-04-24 07:35 -28.83570 153.46632 18303 ft 382 kts 25°
2026-04-24 07:35 -28.81111 153.47724 17773 ft 378 kts 25°
2026-04-24 07:35 -28.78676 153.48810 17241 ft 374 kts 26°
2026-04-24 07:36 -28.76261 153.49887 16697 ft 371 kts 26°
2026-04-24 07:36 -28.73861 153.50955 16143 ft 369 kts 25°
2026-04-24 07:36 -28.71473 153.52016 15595 ft 367 kts 25°
2026-04-24 07:36 -28.69100 153.53070 15037 ft 365 kts 25°
2026-04-24 07:37 -28.66734 153.54117 14489 ft 364 kts 25°
2026-04-24 07:37 -28.64374 153.55161 13900 ft 362 kts 25°
2026-04-24 07:37 -28.62029 153.56199 13329 ft 360 kts 25°
2026-04-24 07:37 -28.59706 153.57229 12756 ft 357 kts 26°
2026-04-24 07:38 -28.57402 153.58253 12216 ft 354 kts 26°
2026-04-24 07:38 -28.55112 153.59270 11667 ft 352 kts 26°
2026-04-24 07:38 -28.52867 153.60269 11133 ft 350 kts 26°
2026-04-24 07:38 -28.50599 153.61217 10914 ft 340 kts 23°
2026-04-24 07:39 -28.48395 153.62059 10787 ft 328 kts 22°
2026-04-24 07:39 -28.46258 153.62842 10659 ft 317 kts 22°
2026-04-24 07:39 -28.44190 153.63591 10494 ft 308 kts 22°
2026-04-24 07:39 -28.42161 153.64333 10203 ft 305 kts 22°
2026-04-24 07:40 -28.40159 153.65075 9930 ft 301 kts 23°
2026-04-24 07:40 -28.38149 153.65826 9477 ft 303 kts 22°
2026-04-24 07:40 -28.36159 153.66556 9168 ft 300 kts 22°
2026-04-24 07:40 -28.34173 153.67278 8802 ft 299 kts 22°
2026-04-24 07:41 -28.32195 153.67993 8462 ft 297 kts 22°
2026-04-24 07:41 -28.30207 153.68633 8107 ft 299 kts 14°
2026-04-24 07:41 -28.28163 153.68971 7858 ft 294 kts 14°
2026-04-24 07:41 -28.26156 153.69364 7562 ft 291 kts 15°
2026-04-24 07:42 -28.24157 153.69754 7213 ft 291 kts 14°
2026-04-24 07:42 -28.22159 153.70142 6898 ft 290 kts 14°
2026-04-24 07:42 -28.20172 153.70527 6640 ft 287 kts 14°
2026-04-24 07:42 -28.18234 153.70896 6511 ft 279 kts 14°
2026-04-24 07:43 -28.16348 153.71251 6382 ft 271 kts 14°
2026-04-24 07:43 -28.14517 153.71587 6254 ft 263 kts 14°
2026-04-24 07:43 -28.12742 153.71907 6120 ft 254 kts 15°
2026-04-24 07:43 -28.11042 153.72203 6007 ft 246 kts 14°
2026-04-24 07:44 -28.09378 153.72492 5885 ft 238 kts 15°
2026-04-24 07:44 -28.07747 153.72761 5647 ft 236 kts 14°
2026-04-24 07:44 -28.06132 153.73033 5393 ft 233 kts 14°
2026-04-24 07:44 -28.04531 153.73304 5122 ft 232 kts 14°
2026-04-24 07:45 -28.02948 153.73577 5009 ft 230 kts 14°
2026-04-24 07:45 -28.01351 153.73847 5013 ft 233 kts 14°
2026-04-24 07:45 -27.99755 153.74123 5015 ft 231 kts 15°
2026-04-24 07:45 -27.98169 153.74394 5013 ft 229 kts 14°
2026-04-24 07:46 -27.96596 153.74663 5011 ft 229 kts 14°
2026-04-24 07:46 -27.95016 153.74937 5009 ft 230 kts 14°
2026-04-24 07:46 -27.93435 153.75217 5008 ft 229 kts 15°
2026-04-24 07:46 -27.91857 153.75496 5009 ft 230 kts 14°
2026-04-24 07:47 -27.90275 153.75773 5006 ft 230 kts 14°
2026-04-24 07:47 -27.88673 153.75873 5005 ft 236 kts 353°
2026-04-24 07:47 -27.87134 153.75189 5007 ft 240 kts 334°
2026-04-24 07:47 -27.85693 153.74276 5006 ft 241 kts 332°
2026-04-24 07:48 -27.84238 153.73318 5004 ft 244 kts 331°
2026-04-24 07:48 -27.82768 153.72353 5006 ft 244 kts 332°
2026-04-24 07:48 -27.81302 153.71387 5006 ft 244 kts 332°
2026-04-24 07:48 -27.79837 153.70418 5005 ft 245 kts 331°
2026-04-24 07:49 -27.78358 153.69448 5006 ft 245 kts 331°
2026-04-24 07:49 -27.76884 153.68484 5006 ft 244 kts 331°
2026-04-24 07:49 -27.75416 153.67525 5006 ft 244 kts 331°
2026-04-24 07:49 -27.74022 153.66448 5005 ft 244 kts 313°
2026-04-24 07:50 -27.73132 153.64843 5004 ft 240 kts 283°
2026-04-24 07:50 -27.72968 153.63020 5004 ft 231 kts 257°
2026-04-24 07:50 -27.73166 153.61219 5006 ft 231 kts 257°
2026-04-24 07:50 -27.73362 153.59419 5005 ft 230 kts 255°
2026-04-24 07:51 -27.73837 153.57758 4859 ft 222 kts 230°
2026-04-24 07:51 -27.74857 153.56573 4752 ft 204 kts 203°
2026-04-24 07:51 -27.76137 153.56003 4701 ft 197 kts 187°
2026-04-24 07:51 -27.77471 153.55620 4657 ft 199 kts 188°
2026-04-24 07:52 -27.78805 153.55230 4607 ft 198 kts 187°
2026-04-24 07:52 -27.80139 153.54840 4567 ft 198 kts 187°
2026-04-24 07:52 -27.81475 153.54451 4520 ft 199 kts 189°
2026-04-24 07:52 -27.82739 153.53761 4477 ft 207 kts 207°
2026-04-24 07:53 -27.83892 153.52772 4426 ft 208 kts 211°
2026-04-24 07:53 -27.85021 153.51740 4360 ft 209 kts 211°
2026-04-24 07:53 -27.86150 153.50709 4321 ft 208 kts 211°
2026-04-24 07:53 -27.87321 153.49777 4247 ft 203 kts 203°
2026-04-24 07:54 -27.88542 153.48983 3984 ft 202 kts 201°
2026-04-24 07:54 -27.89707 153.48244 3742 ft 201 kts 201°
2026-04-24 07:54 -27.90906 153.47483 3466 ft 200 kts 202°
2026-04-24 07:54 -27.92124 153.46734 3210 ft 198 kts 201°
2026-04-24 07:55 -27.93324 153.45989 2992 ft 195 kts 201°
2026-04-24 07:55 -27.94506 153.45253 2806 ft 191 kts 201°
2026-04-24 07:55 -27.95653 153.44562 2680 ft 181 kts 196°
2026-04-24 07:55 -27.96828 153.44215 2488 ft 172 kts 183°
2026-04-24 07:56 -27.98003 153.44024 2237 ft 170 kts 181°
2026-04-24 07:56 -27.99172 153.43857 2088 ft 167 kts 182°
2026-04-24 07:56 -28.00326 153.43713 2017 ft 166 kts 182°
2026-04-24 07:56 -28.01441 153.43594 2049 ft 152 kts 181°
2026-04-24 07:57 -28.02441 153.43465 2028 ft 140 kts 181°
2026-04-24 07:57 -28.03067 153.43367 2028 ft 136 kts 181°
2026-04-24 07:57 -28.04003 153.43221 2024 ft 135 kts 183°
2026-04-24 07:57 -28.04916 153.43278 2026 ft 132 kts 159°
2026-04-24 07:58 -28.05732 153.43773 2024 ft 133 kts 152°
2026-04-24 07:58 -28.06542 153.44285 2003 ft 134 kts 150°
2026-04-24 07:58 -28.07351 153.44798 1869 ft 133 kts 151°
2026-04-24 07:58 -28.08165 153.45314 1720 ft 133 kts 150°
2026-04-24 07:59 -28.08962 153.45819 1543 ft 132 kts 151°
2026-04-24 07:59 -28.09767 153.46331 1377 ft 132 kts 151°
2026-04-24 07:59 -28.10567 153.46839 1204 ft 132 kts 152°
2026-04-24 07:59 -28.11365 153.47346 1028 ft 131 kts 151°
2026-04-24 08:00 -28.12159 153.47851 853 ft 132 kts 151°
2026-04-24 08:00 -28.12967 153.48369 672 ft 136 kts 154°
2026-04-24 08:00 -28.13783 153.48888 507 ft 137 kts 153°
2026-04-24 08:00 -28.14595 153.49404 294 ft 130 kts 158°
2026-04-24 08:01 -28.15398 153.49914 132 ft 133 kts 157°
2026-04-24 08:01 -28.16174 153.50400 28 ft 106 kts 149°
2026-04-24 08:01 -28.16557 153.50644 29 ft 28 kts 150°
2026-04-24 08:01 -28.16725 153.50755 29 ft 29 kts 153°
2026-04-24 08:02 -28.16910 153.50873 28 ft 27 kts 149°
2026-04-24 08:02 -28.16954 153.50957 27 ft 8 kts 51°
2026-04-24 08:02 -28.16902 153.51033 30 ft 15 kts 56°
2026-04-24 08:02 -28.16852 153.51141 25 ft 17 kts 63°
2026-04-24 08:03 -28.16801 153.51168 25 ft 7 kts 309°
2026-04-24 08:03 -28.16758 153.51132 26 ft 9 kts 335°
2026-04-24 08:03 -28.16694 153.51095 24 ft 11 kts 331°
2026-04-24 08:03 -28.16617 153.51049 24 ft 13 kts 354°
2026-04-24 08:04 -28.16578 153.51111 23 ft 9 kts 50°
2026-04-24 08:04 -28.16568 153.51130 25 ft 0 kts 60°